Regional Weather Roundup
Issued by NWS

Home | Current Version | Previous Version | Text Only | Print | Product List | Glossary Off
Versions: 1 2 3 4 5 6 7 8 9 10 11 12 13 14 15 16 17 18 19 20 21 22 23 24 25 26 27 28 29 30 31 32 33 34 35 36 37 38 39 40 41 42 43 44 45 46 47 48 49 50

000
ASUS44 KMEG 130510
RWRTN
TENNESSEE HOURLY STATE WEATHER ROUNDUP
NATIONAL WEATHER SERVICE MEMPHIS TN
1200 AM CDT SUN JUL 13 2014

TNZ002-004-019-021-049-052-054-088>092-130600-
WEST TENNESSEE

CITY           SKY/WX    TMP DP  RH WIND       PRES   REMARKS
MEMPHIS INTL   PTCLDY    80  71  74 S3        30.10R
NWS MEMPHIS      N/A     77 N/A N/A MISG        N/A
JACKSON        CLEAR     74  69  85 S5        30.10S
DYERSBURG      CLEAR     79  64  61 S3        30.10R
UNION CITY     CLEAR     75  72  88 CALM      30.08S
PARIS          MOCLDY    71  66  84 CALM      30.11R
LEXINGTON      CLEAR     73  72  94 CALM      30.11R
SAVANNAH       CLEAR     71  71 100 CALM      30.12R
$$

TNZ008-025-027-028-033-062-065-066-130600-
NORTH MIDDLE TENNESSEE

CITY           SKY/WX    TMP DP  RH WIND       PRES   REMARKS
NASHVILLE      PTCLDY    76  69  79 S3        30.10S
DICKSON        CLEAR     75  68  78 S3        30.11S
PORTLAND       CLOUDY    72  66  83 S5        30.10S
CLARKSVILLE    MOCLDY    78  69  73 SW3       30.09S
LEBANON        CLEAR     76  65  68 CALM      30.09S
SMYRNA         CLEAR     75  70  85 CALM      30.11S
MURFREESBORO   CLEAR     79  67  66 S3        30.10
COOKEVILLE     CLEAR     70  66  88 CALM      30.13S
LIVINGSTON       N/A     74  63  68 S6        30.14F
GALLATIN       CLEAR     76  69  79 CALM      30.11R
CROSSVILLE     CLEAR     73  68  84 CALM      30.19S
$$

TNZ061-075-076-078-094-096-097-130600-
SOUTH MIDDLE TENNESSEE

CITY           SKY/WX    TMP DP  RH WIND       PRES   REMARKS
LEWISBURG      CLEAR     73  68  84 CALM      30.12R
FAYETTEVILLE   CLEAR     75  70  83 S6        30.14S
TULLAHOMA      CLEAR     73  68  83 CALM      30.16R
WINCHESTER     CLEAR     73  70  88 CALM      30.14F
MCMINNVILLE    CLEAR     72  72 100 CALM      30.14S
COLUMBIA       CLEAR     73  72  94 CALM      30.11S
SHELBYVILLE    CLEAR     72  70  94 E3        30.14S
$$

TNZ017-018-042-046-047-130600-
NORTHEAST TENNESSEE

CITY           SKY/WX    TMP DP  RH WIND       PRES   REMARKS
TRI CITIES     MOCLDY    71  66  84 CALM      30.17S
ELIZABETHTON   PTCLDY    68  64  88 CALM      30.18F
$$

TNZ012-013-036-069-073-074-130600-
CENTRAL EAST TENNESSEE

CITY           SKY/WX    TMP DP  RH WIND       PRES   REMARKS
KNOXVILLE      PTCLDY    77  68  73 CALM      30.13S
OAK RIDGE      CLEAR     77  70  79 CALM      30.15S
GATLINBURG     CLEAR     72  66  83 CALM      30.14S
MORRISTOWN       N/A     72  70  94 CALM      30.16F
$$

TNZ083-085-099-130600-
SOUTHEAST TENNESSEE

CITY           SKY/WX    TMP DP  RH WIND       PRES   REMARKS
CHATTANOOGA    MOCLDY    77  71  82 CALM      30.13F
$$

SKY/WX REPORTED AS FAIR MEANS FEW OR NO CLOUDS BELOW
12 THOUSAND FEET.




USA.gov is the U.S. government's official web portal to all federal, state and local government web resources and services.